Ithaca, NY

12:12 PM EDT on March 26, 2017 (GMT -0400)
Tompkins County

Weather History for KITH - November, 2014

Change the Weather History Date:

Saturday, November 15, 2014

  Actual Average Record
Temperature  
Mean Temperature 30 °F -  
Max Temperature 36 °F 46 °F 69 °F (1928)
Min Temperature 24 °F 29 °F 11 °F (1933)
Degree Days  
Heating Degree Days 35    
Moisture  
Dew Point 21 °F    
Average Humidity 73    
Maximum Humidity 93    
Minimum Humidity 48    
Precipitation  
Precipitation 0.00 in - - ()
Sea Level Pressure  
Sea Level Pressure 30.29 in    
Wind  
Wind Speed 8 mph (WNW)    
Max Wind Speed 14 mph    
Max Gust Speed -    
Visibility 9 miles    
Events Snow    
Averages and records for this station are not official NWS values.
T = Trace of Precipitation, MM = Missing Value Source: NWS Daily Summary

Daily Weather History Graph

Daily Weather History Graph

Search for Another Location

Airport or City:

Trip Planner

Search our weather history database for the weather conditions in past years. The results will help you decide how hot, cold, wet, or windy it might be!

Date:

Astronomy

Nov. 15, 2014 Rise Set
Actual Time 6:56 AM EST 4:43 PM EST
Civil Twilight 6:26 AM EST 5:13 PM EST
Nautical Twilight 5:52 AM EST 5:47 PM EST
Astronomical Twilight 5:19 AM EST 6:21 PM EST
Moon No Moon Rise 1:13 PM EST (11/15)
Length of Visible Light 10h 47m
Length of Day
9h 46m
Last Quarter, 40% of the Moon is Illuminated
Nov 15
Last Quarter
Nov 22
New
Nov 29
First Quarter
Dec 6
Full
Dec 14
Last Quarter

Hourly Weather History & Observations

Time (EST) Temp. Windchill Dew Point Humidity Pressure Visibility Wind Dir Wind Speed Gust Speed Precip Events Conditions
12:56 AM 29.1 °F 20.0 °F 23.0 °F 78% 30.23 in 10.0 mi NW 10.4 mph - 0.00 in   Overcast
1:16 AM 28.4 °F 17.5 °F 21.2 °F 74% 30.19 in 10.0 mi NNW 13.8 mph - N/A   Overcast
1:56 AM 29.1 °F 18.4 °F 21.0 °F 72% 30.25 in 10.0 mi NW 13.8 mph - 0.00 in Snow Light Snow
2:11 AM 28.4 °F 19.1 °F 21.2 °F 74% 30.21 in 6.0 mi NNW 10.4 mph - 0.00 in Snow Light Snow
2:47 AM 26.6 °F 17.5 °F 24.8 °F 93% 30.22 in 4.0 mi NNW 9.2 mph - 0.00 in Snow Light Snow
2:56 AM 27.1 °F 17.5 °F 25.2 °F 92% 30.27 in 4.0 mi NNW 10.4 mph - 0.00 in Snow Light Snow
3:24 AM 26.6 °F 16.2 °F 24.8 °F 93% 30.23 in 5.0 mi NNW 11.5 mph - 0.00 in Snow Light Snow
3:43 AM 26.6 °F 16.8 °F 24.8 °F 93% 30.24 in 8.0 mi NW 10.4 mph - 0.00 in Snow Light Snow
3:56 AM 27.1 °F 18.2 °F 24.1 °F 88% 30.29 in 8.0 mi NW 9.2 mph - 0.00 in Snow Light Snow
4:37 AM 26.6 °F 20.0 °F 23.0 °F 86% 30.25 in 10.0 mi NNW 5.8 mph - 0.00 in Snow Light Snow
4:56 AM 26.1 °F 20.5 °F 22.1 °F 85% 30.30 in 10.0 mi NW 4.6 mph - 0.00 in Snow Light Snow
5:05 AM 24.8 °F 19.1 °F 21.2 °F 86% 30.26 in 10.0 mi NW 4.6 mph - 0.00 in Snow Light Snow
5:12 AM 24.8 °F 17.9 °F 21.2 °F 86% 30.26 in 10.0 mi NNW 5.8 mph - 0.00 in   Mostly Cloudy
5:56 AM 26.1 °F 19.4 °F 21.0 °F 81% 30.31 in 10.0 mi NNW 5.8 mph - 0.00 in Snow Light Snow
6:27 AM 24.8 °F 20.5 °F 19.4 °F 80% 30.27 in 10.0 mi North 3.5 mph - 0.00 in   Scattered Clouds
6:56 AM 25.2 °F - 21.0 °F 84% 30.32 in 10.0 mi Calm Calm - 0.00 in Snow Light Snow
7:56 AM 27.1 °F 20.7 °F 23.0 °F 84% 30.34 in 10.0 mi West 5.8 mph - 0.00 in Snow Light Snow
8:56 AM 29.1 °F 22.1 °F 23.0 °F 78% 30.36 in 10.0 mi West 6.9 mph - 0.00 in Snow Light Snow
9:56 AM 32.0 °F 26.4 °F 21.0 °F 64% 30.36 in 10.0 mi West 5.8 mph - 0.00 in   Scattered Clouds
10:56 AM 32.9 °F 28.5 °F 20.1 °F 59% 30.36 in 10.0 mi NW 4.6 mph - N/A   Clear
11:56 AM 34.9 °F 29.9 °F 20.1 °F 55% 30.35 in 10.0 mi WNW 5.8 mph - N/A   Scattered Clouds
12:56 PM 36.0 °F 29.0 °F 18.1 °F 48% 30.32 in 10.0 mi NW 9.2 mph - N/A   Scattered Clouds
1:56 PM 36.0 °F 29.0 °F 18.1 °F 48% 30.32 in 10.0 mi West 9.2 mph - N/A   Mostly Cloudy
2:56 PM 34.9 °F 32.0 °F 18.1 °F 51% 30.32 in 10.0 mi NW 3.5 mph - N/A   Overcast
3:56 PM 34.9 °F 28.3 °F 19.0 °F 52% 30.32 in 10.0 mi West 8.1 mph - N/A   Overcast
4:56 PM 32.9 °F 29.8 °F 19.0 °F 57% 30.31 in 10.0 mi WSW 3.5 mph - N/A   Overcast
5:56 PM 34.0 °F 28.0 °F 20.1 °F 57% 30.33 in 10.0 mi WSW 6.9 mph - N/A   Overcast
6:56 PM 32.9 °F 28.5 °F 21.0 °F 62% 30.33 in 10.0 mi WSW 4.6 mph - N/A   Overcast
7:56 PM 32.9 °F 26.7 °F 22.1 °F 65% 30.33 in 10.0 mi SSW 6.9 mph - N/A   Overcast
8:56 PM 32.0 °F 26.4 °F 22.1 °F 67% 30.32 in 10.0 mi South 5.8 mph - N/A   Overcast
9:56 PM 31.1 °F 24.5 °F 22.1 °F 69% 30.31 in 10.0 mi South 6.9 mph - N/A   Overcast
10:56 PM 31.1 °F 26.4 °F 21.0 °F 66% 30.30 in 10.0 mi South 4.6 mph - N/A   Overcast
11:56 PM 31.1 °F 25.4 °F 21.0 °F 66% 30.31 in 10.0 mi South 5.8 mph - N/A   Overcast